When you browse on this site, cookies collect data to enhance your experience and personalize the content and advertising you see.
Visit our Privacy Policy to learn more. By continuing to use the site, you agree to this use of cookies and data.

Hourly Weather Zasluchchya

Today, 15 August, Saturday

Time Temperature Precipitation Wind Pressure Humidity
00:00 +14°C° 0 mm 2 mps 751 mmHg 81%
01:00 +14°C° 0 mm 2 mps 751 mmHg 82%
02:00 +13°C° 0 mm 2 mps 751 mmHg 83%
03:00 +13°C° 0 mm 2 mps 751 mmHg 83%
04:00 +13°C° 0 mm 2 mps 751 mmHg 83%
05:00 +12°C° 0 mm 2 mps 751 mmHg 83%
06:00 +14°C° 0 mm 2 mps 751 mmHg 78%
07:00 +15°C° 0 mm 2 mps 751 mmHg 73%
08:00 +17°C° 0 mm 2 mps 752 mmHg 67%
09:00 +19°C° 0 mm 2 mps 752 mmHg 62%
10:00 +20°C° 0 mm 2 mps 752 mmHg 56%
11:00 +23°C° 0 mm 2 mps 752 mmHg 50%
12:00 +24°C° 0 mm 2 mps 752 mmHg 47%
13:00 +24°C° 0 mm 2 mps 752 mmHg 45%
14:00 +25°C° 0 mm 2 mps 751 mmHg 42%
15:00 +25°C° 0 mm 2 mps 751 mmHg 44%
16:00 +25°C° 0 mm 2 mps 751 mmHg 46%
17:00 +25°C° 0 mm 2 mps 750 mmHg 47%
18:00 +23°C° 0 mm 1 mps 750 mmHg 56%
19:00 +20°C° 0 mm 1 mps 750 mmHg 64%
20:00 +18°C° 0 mm 1 mps 750 mmHg 73%
21:00 +18°C° 0 mm 1 mps 751 mmHg 75%
22:00 +16°C° 0 mm 1 mps 751 mmHg 77%
23:00 +14°C° 0 mm 0 mps 751 mmHg 79%

Tomorrow, 16 August, Sunday

Time Temperature Precipitation Wind Pressure Humidity
00:00 +14°C° 0 mm 0 mps 751 mmHg 79%
01:00 +14°C° 0 mm 1 mps 751 mmHg 80%
02:00 +14°C° 0 mm 1 mps 751 mmHg 80%
03:00 +13°C° 0 mm 0 mps 751 mmHg 81%
04:00 +12°C° 0 mm 0 mps 751 mmHg 82%
05:00 +12°C° 0 mm 0 mps 751 mmHg 84%
06:00 +14°C° 0 mm 0 mps 751 mmHg 77%
07:00 +16°C° 0 mm 0 mps 751 mmHg 71%
08:00 +18°C° 0 mm 0 mps 751 mmHg 64%
09:00 +20°C° 0 mm 0 mps 751 mmHg 59%
10:00 +22°C° 0 mm 0 mps 751 mmHg 54%
11:00 +24°C° 0 mm 0 mps 751 mmHg 49%
12:00 +24°C° 0 mm 0 mps 751 mmHg 47%
13:00 +25°C° 0 mm 0 mps 751 mmHg 45%
14:00 +27°C° 0 mm 1 mps 751 mmHg 43%
15:00 +27°C° 0 mm 1 mps 751 mmHg 44%
16:00 +27°C° 0 mm 1 mps 750 mmHg 45%
17:00 +26°C° 0 mm 1 mps 750 mmHg 47%
18:00 +24°C° 0 mm 1 mps 750 mmHg 54%
19:00 +22°C° 0 mm 1 mps 750 mmHg 62%
20:00 +20°C° 0 mm 1 mps 750 mmHg 69%
21:00 +20°C° 0 mm 1 mps 750 mmHg 71%
22:00 +19°C° 0 mm 1 mps 750 mmHg 73%
23:00 +18°C° 0 mm 1 mps 750 mmHg 74%

Day after tomorrow, 17 August, Monday

Time Temperature Precipitation Wind Pressure Humidity
00:00 +18°C° 0 mm 1 mps 750 mmHg 75%
01:00 +16°C° 0 mm 1 mps 750 mmHg 76%
02:00 +16°C° 0 mm 1 mps 750 mmHg 76%
03:00 +16°C° 0 mm 1 mps 750 mmHg 77%
04:00 +15°C° 0 mm 1 mps 750 mmHg 77%
05:00 +15°C° 0 mm 1 mps 750 mmHg 77%
06:00 +18°C° 0 mm 1 mps 750 mmHg 72%
07:00 +20°C° 0 mm 1 mps 750 mmHg 66%
08:00 +21°C° 0 mm 1 mps 750 mmHg 61%
09:00 +23°C° 0 mm 1 mps 750 mmHg 55%
10:00 +25°C° 0 mm 2 mps 750 mmHg 50%
11:00 +26°C° 0 mm 2 mps 749 mmHg 44%
12:00 +27°C° 0 mm 2 mps 749 mmHg 42%
13:00 +28°C° 0 mm 2 mps 749 mmHg 40%
14:00 +29°C° 0 mm 2 mps 749 mmHg 38%
15:00 +28°C° 0 mm 2 mps 748 mmHg 40%
16:00 +28°C° 0 mm 2 mps 748 mmHg 43%
17:00 +28°C° 0 mm 2 mps 747 mmHg 45%
18:00 +26°C° 0 mm 2 mps 747 mmHg 51%
19:00 +24°C° 0 mm 2 mps 747 mmHg 57%
20:00 +21°C° 0 mm 2 mps 747 mmHg 63%
21:00 +20°C° 0 mm 2 mps 747 mmHg 65%
22:00 +20°C° 0 mm 2 mps 747 mmHg 67%
23:00 +19°C° 0 mm 2 mps 747 mmHg 69%

18 August, Tuesday

Time Temperature Precipitation Wind Pressure Humidity
00:00 +19°C° 0 mm 2 mps 747 mmHg 68%
01:00 +19°C° 0 mm 3 mps 747 mmHg 67%
02:00 +19°C° 0 mm 3 mps 746 mmHg 66%
03:00 +18°C° 0.1 mm 3 mps 746 mmHg 66%
04:00 +18°C° 0.1 mm 2 mps 746 mmHg 66%
05:00 +18°C° 0.1 mm 2 mps 745 mmHg 67%
06:00 +18°C° 0.2 mm 3 mps 745 mmHg 67%
07:00 +18°C° 0.2 mm 3 mps 745 mmHg 68%
08:00 +19°C° 0.2 mm 3 mps 745 mmHg 69%
09:00 +20°C° 0.3 mm 2 mps 745 mmHg 68%
10:00 +21°C° 0.3 mm 2 mps 745 mmHg 66%
11:00 +24°C° 0.3 mm 1 mps 745 mmHg 65%
12:00 +24°C° 0.2 mm 2 mps 744 mmHg 65%
13:00 +25°C° 0.2 mm 2 mps 744 mmHg 64%
14:00 +25°C° 0.2 mm 2 mps 744 mmHg 64%
15:00 +25°C° 0.6 mm 2 mps 743 mmHg 65%
16:00 +26°C° 0.6 mm 2 mps 743 mmHg 67%
17:00 +26°C° 0.6 mm 2 mps 743 mmHg 68%
18:00 +25°C° 1 mm 2 mps 742 mmHg 72%
19:00 +24°C° 1 mm 1 mps 742 mmHg 77%
20:00 +22°C° 1 mm 1 mps 742 mmHg 82%
21:00 +22°C° 0.7 mm 1 mps 742 mmHg 85%
22:00 +21°C° 0.7 mm 1 mps 742 mmHg 88%
23:00 +21°C° 0.7 mm 1 mps 742 mmHg 91%

19 August, Wednesday

Time Temperature Precipitation Wind Pressure Humidity
00:00 +20°C° 0.7 mm 1 mps 742 mmHg 92%
01:00 +19°C° 0.7 mm 2 mps 742 mmHg 93%
02:00 +19°C° 0.7 mm 2 mps 742 mmHg 94%
03:00 +19°C° 0.1 mm 2 mps 741 mmHg 94%
04:00 +19°C° 0.1 mm 2 mps 741 mmHg 95%
05:00 +18°C° 0.1 mm 2 mps 741 mmHg 95%
06:00 +19°C° 0.1 mm 2 mps 741 mmHg 93%
07:00 +20°C° 0.1 mm 2 mps 741 mmHg 90%
08:00 +21°C° 0.1 mm 2 mps 742 mmHg 88%
09:00 +24°C° 0 mm 2 mps 742 mmHg 82%
10:00 +25°C° 0 mm 2 mps 742 mmHg 77%
11:00 +26°C° 0 mm 2 mps 742 mmHg 71%
12:00 +26°C° 0.5 mm 2 mps 742 mmHg 69%
13:00 +27°C° 0.5 mm 3 mps 742 mmHg 68%
14:00 +27°C° 0.5 mm 3 mps 742 mmHg 66%
15:00 +26°C° 0.9 mm 3 mps 742 mmHg 71%
16:00 +25°C° 0.9 mm 3 mps 742 mmHg 76%
17:00 +24°C° 0.9 mm 3 mps 742 mmHg 81%
18:00 +22°C° 0.6 mm 3 mps 742 mmHg 85%
19:00 +21°C° 0.6 mm 2 mps 742 mmHg 89%
20:00 +19°C° 0.6 mm 2 mps 742 mmHg 93%
21:00 +19°C° 0 mm 2 mps 742 mmHg 94%
22:00 +18°C° 0 mm 2 mps 742 mmHg 95%
23:00 +18°C° 0 mm 2 mps 742 mmHg 96%

20 August, Thursday

Time Temperature Precipitation Wind Pressure Humidity
00:00 +17°C° 0 mm 2 mps 742 mmHg 97%
01:00 +17°C° 0 mm 2 mps 742 mmHg 97%
02:00 +17°C° 0 mm 2 mps 742 mmHg 97%
03:00 +17°C° 0 mm 2 mps 742 mmHg 97%
04:00 +16°C° 0 mm 2 mps 742 mmHg 97%
05:00 +16°C° 0 mm 2 mps 742 mmHg 97%
06:00 +17°C° 0 mm 2 mps 742 mmHg 93%
07:00 +18°C° 0 mm 2 mps 743 mmHg 90%
08:00 +19°C° 0 mm 3 mps 743 mmHg 87%
09:00 +21°C° 0 mm 3 mps 743 mmHg 80%
10:00 +22°C° 0 mm 3 mps 744 mmHg 73%
11:00 +25°C° 0 mm 3 mps 744 mmHg 66%
12:00 +25°C° 0.3 mm 4 mps 744 mmHg 67%
13:00 +25°C° 0.3 mm 4 mps 744 mmHg 68%
14:00 +25°C° 0.3 mm 4 mps 744 mmHg 69%
15:00 +25°C° 0.1 mm 4 mps 744 mmHg 68%
16:00 +25°C° 0.1 mm 3 mps 744 mmHg 67%
17:00 +25°C° 0.1 mm 3 mps 744 mmHg 67%
18:00 +23°C° 0 mm 2 mps 745 mmHg 73%
19:00 +21°C° 0 mm 1 mps 745 mmHg 80%
20:00 +20°C° 0 mm 1 mps 745 mmHg 86%
21:00 +20°C° 0 mm 1 mps 745 mmHg 88%
22:00 +19°C° 0 mm 1 mps 746 mmHg 90%
23:00 +18°C° 0 mm 2 mps 746 mmHg 92%
Show more